Simultaneous Nadir Overpasses (SNOs) Predictions

Prediction of SNOs between GOES-15 and METOP-A Satellite Orbit:

Table of predicted SNOs for the next 14.0 days since TLE Epoch: 1/6/2012
Index Date Time (GOES-15) GOES-15 Lat,Lon METOP-A Lat,Lon Distance(km) Time Diff (sec)
1 01/07/2012 18:14:49 -0.05,-134.73 -0.69,-131.76 337.31 80
2 01/09/2012 06:36:32 0.04,-134.76 -0.30,-136.37 183.61 80
3 01/10/2012 06:13:14 0.04,-134.74 0.78,-131.37 383.73 80
4 01/11/2012 18:34:47 -0.03,-134.68 0.26,-135.93 143.27 80
5 01/12/2012 18:11:30 -0.03,-134.66 -0.87,-130.95 423.85 80
6 01/14/2012 06:33:12 0.02,-134.69 -0.19,-135.54 98.06 80
7 01/15/2012 06:09:54 0.03,-134.67 0.95,-130.56 468.52 80
8 01/16/2012 18:31:28 -0.02,-134.59 0.10,-135.11 59.94 80
9 01/19/2012 06:29:53 0.02,-134.57 -0.03,-134.72 17.48 80




NCC Satellite Simultaneous Nadir Overpasses (SNOs) Prediction Service
